軌道要素
Epoch 2022 Jan. 21.0 TT = JDT 2459600.5
T 2021 Nov. 13.29891 TT Rudenko
q 3.7965891 (2000.0) P Q
n 0.05399191 Peri. 177.34491 +0.77538749 -0.61329446
a 6.9329315 Node 221.74244 +0.57513248 +0.78424924
e 0.4523833 Incl. 13.06281 +0.26076209 +0.09393102
P 18.3
From 713 observations 2021 June 27-2022 Feb. 22, mean residual 0".3.
|